Flag for Canada Weather past 2 weeks in Kamloops, British Columbia, Canada

Now
75 °F

Broken clouds.


Feels Like: 77 °F
Forecast: 55 / 76 °F
Wind: 3 mph from West

Location: Kamloops

Current Time: Aug 21, 2014 at 7:20:47 PM

Latest Report: Aug 21, 2014 at 6:00 PM


Visibility: 40 mi

Pressure: 29.89 "Hg

Humidity: 34%

Dew point: 45 °F

Location of KamloopsLocation

Historic Weather in Kamloops — Graph

°F

Kamloops temperature yesterday

Maximum temperature yesterday: 81 °F (at 5:00 PM)
Minimum temperature yesterday: 61 °F (at 1:00 AM)
Average temperature yesterday: 68 °F

Past Weeks' High & Low Weather Summary

 TemperatureHumidityPressure
High100 °F (Aug 11, 5:00 PM)100% (Aug 13, 9:00 AM)30.21 "Hg (Aug 13, 9:00 AM)
Low55 °F (Aug 21, 3:00 AM)14% (Aug 11, 5:00 PM)29.63 "Hg (Aug 19, 7:00 PM)
Average73 °F54%29.93 "Hg
* Reported Aug 6 6:00 PM — Aug 21 6:00 PM, Kamloops, Weather by CustomWeather, © 2014

Note: Actual official high and low records may vary slightly from our data, if they occured in-between our weather recording intervals... More about our weather records

Advertising

Kamloops weather history for previous 24 hours

 ConditionsComfort  
Time TempWeatherWind HumidityBarometerVisibility
6:00 PM
Aug 21
75 °FBroken clouds.3 mph34%29.89 "Hg40 mi
5:00 PM77 °FPassing clouds.2 mph32%29.89 "Hg40 mi
4:00 PM73 °FBroken clouds.3 mph41%29.91 "Hg40 mi
3:00 PM70 °FScattered clouds.2 mph53%29.94 "Hg40 mi
2:00 PM64 °FPartly sunny.6 mph68%29.97 "Hg40 mi
1:00 PM64 °FPartly sunny.2 mph52%29.99 "Hg40 mi
12:00 PM64 °FBroken clouds.3 mph49%30.00 "Hg40 mi
11:00 AM61 °FBroken clouds.7 mph55%30.01 "Hg40 mi
10:00 AM59 °FScattered clouds.5 mph59%30.03 "Hg40 mi
9:00 AM59 °FScattered clouds.7 mph59%30.03 "Hg40 mi
8:00 AM57 °FBroken clouds.7 mph63%30.02 "Hg40 mi
7:00 AM55 °FPartly sunny.8 mph63%30.00 "Hg40 mi
6:00 AM55 °FPassing clouds.6 mph67%29.99 "Hg40 mi
5:00 AM57 °FCool.6 mph63%29.98 "Hg40 mi
4:00 AM57 °FPassing clouds.7 mph63%29.96 "Hg40 mi
3:00 AM55 °FPassing clouds.3 mph72%29.96 "Hg40 mi
2:00 AM57 °FPassing clouds.No wind67%29.94 "Hg40 mi
1:00 AM61 °FPassing clouds.3 mph59%29.92 "Hg40 mi
12:00 AM59 °FPassing clouds.5 mph63%29.91 "Hg40 mi
11:00 PM
Aug 20
63 °FPassing clouds.6 mph56%29.89 "Hg40 mi
10:00 PM68 °FPassing clouds.6 mph43%29.87 "Hg40 mi
9:00 PM70 °FPassing clouds.3 mph38%29.85 "Hg40 mi
8:00 PM72 °FPassing clouds.2 mph50%29.82 "Hg40 mi
7:00 PM79 °FPassing clouds.3 mph30%29.81 "Hg40 mi
Weather by CustomWeather, © 2014

See weather overviewHow to use our weather pages